User: anonymous   Login
Location: Durham
(54.7770°N, 1.5720°W)
Time: 17:54:32
(UTC+00:00)
Language:

ISS - Orbit

View from above orbital plane
View from above orbital plane
View from above satellite
View from above satellite

Ground track
Ground track

The orbit data is extracted from the following two-line orbital elements,

1 25544U 98067A   16341.70444770  .00016717  00000-0  10270-3 0  9140
2 25544  51.6425 277.8087 0006488 300.6187  59.4325 15.53833135 31813
Epoch (UTC): 06 December 2016 16:54:24
Eccentricity: 0.0006488
inclination: 51.6425°
perigee height: 401 km
apogee height: 410 km
right ascension of ascending node: 277.8087°
argument of perigee: 300.6187°
revolutions per day: 15.53833135
mean anomaly at epoch: 59.4325°
orbit number at epoch: 3181

The dashed part of the orbit path shows where the satellite is in the earth's shadow,  

DLR